Location: Bonac
(42.8765°N, 0.9753°E)
Time: 09:42:59
(UTC+00:00)

Cosmos 332 Rocket - Pass Details

Date: 12 January 2026
Orbit: 672 x 693 km, 74.0° (Epoch: 11 February)

Event Time Altitude Azimuth Distance (km) Brightness Sun altitude
Rises 18:57:02 0° 335° (NNW) 3,038 7.3 -23.9°
Reaches altitude 10° 18:59:23 10° 330° (NNW) 2,122 6.5 -24.3°
Maximum altitude 19:04:00 52° 255° (WSW) 849 4.5 -25.1°
Drops below altitude 10° 19:08:37 10° 180° (S) 2,119 6.3 -26.0°
Sets 19:10:58 0° 175° (S) 3,033 7.1 -26.4°
